LOB4222 KBGR-KACY

Flight info

Callsign LOB4222
Flight time 1h 15m
Altitude 34000
Route BEEKN Q439 BRIGS
Aircraft B738/M-SDE2E3FGHIRWXY/LB1

Departure

Time 2026-05-03 22:01
Airport Bangor International Airport (KBGR)

Arrival

Time 2026-05-03 23:16
Airport Atlantic City International Airport (KACY)
Time Latitude Longitude Altitude Speed Heading
2026-05-03 21:40 44.80680 -68.81606 174 ft 0 kts 12°
2026-05-03 21:49 44.80679 -68.81606 174 ft 2 kts 12°
2026-05-03 21:50 44.80656 -68.81613 174 ft 2 kts 13°
2026-05-03 21:50 44.80640 -68.81617 174 ft 4 kts 352°
2026-05-03 21:50 44.80619 -68.81602 174 ft 4 kts 304°
2026-05-03 21:50 44.80610 -68.81580 173 ft 1 kts 291°
2026-05-03 21:51 44.80609 -68.81576 173 ft 1 kts 291°
2026-05-03 21:55 44.80611 -68.81580 173 ft 1 kts 291°
2026-05-03 21:55 44.80613 -68.81590 173 ft 1 kts 291°
2026-05-03 21:55 44.80616 -68.81599 173 ft 1 kts 292°
2026-05-03 21:55 44.80621 -68.81617 174 ft 3 kts 292°
2026-05-03 21:56 44.80626 -68.81658 174 ft 6 kts 269°
2026-05-03 21:56 44.80603 -68.81729 172 ft 11 kts 229°
2026-05-03 21:56 44.80552 -68.81806 161 ft 11 kts 224°
2026-05-03 21:56 44.80498 -68.81841 159 ft 8 kts 168°
2026-05-03 21:57 44.80454 -68.81790 158 ft 8 kts 135°
2026-05-03 21:57 44.80414 -68.81732 158 ft 9 kts 134°
2026-05-03 21:57 44.80369 -68.81668 158 ft 10 kts 134°
2026-05-03 21:57 44.80320 -68.81596 158 ft 11 kts 134°
2026-05-03 21:58 44.80265 -68.81518 158 ft 12 kts 134°
2026-05-03 21:58 44.80208 -68.81435 158 ft 12 kts 134°
2026-05-03 21:58 44.80146 -68.81344 159 ft 13 kts 134°
2026-05-03 21:58 44.80081 -68.81251 159 ft 13 kts 135°
2026-05-03 21:59 44.80018 -68.81162 162 ft 13 kts 134°
2026-05-03 21:59 44.79958 -68.81074 166 ft 12 kts 134°
2026-05-03 21:59 44.79890 -68.81004 171 ft 12 kts 167°
2026-05-03 21:59 44.79815 -68.81039 174 ft 12 kts 220°
2026-05-03 22:00 44.79757 -68.81115 175 ft 11 kts 224°
2026-05-03 22:00 44.79713 -68.81200 176 ft 12 kts 246°
2026-05-03 22:00 44.79738 -68.81356 170 ft 24 kts 314°
2026-05-03 22:00 44.80027 -68.81776 166 ft 101 kts 314°
2026-05-03 22:01 44.80721 -68.82751 208 ft 176 kts 314°
2026-05-03 22:01 44.81602 -68.84164 910 ft 195 kts 312°
2026-05-03 22:01 44.82504 -68.85665 1997 ft 205 kts 309°
2026-05-03 22:01 44.83360 -68.87287 3011 ft 208 kts 313°
2026-05-03 22:02 44.84382 -68.88655 3889 ft 210 kts 317°
2026-05-03 22:02 44.85061 -68.90593 4420 ft 238 kts 280°
2026-05-03 22:02 44.84805 -68.92960 5294 ft 255 kts 254°
2026-05-03 22:02 44.83817 -68.95119 6198 ft 271 kts 233°
2026-05-03 22:03 44.82446 -68.96994 7029 ft 278 kts 227°
2026-05-03 22:03 44.80982 -68.98782 7922 ft 280 kts 225°
2026-05-03 22:03 44.79488 -69.00570 8773 ft 283 kts 224°
2026-05-03 22:03 44.77987 -69.02371 9633 ft 286 kts 224°
2026-05-03 22:04 44.76472 -69.04202 10477 ft 288 kts 224°
2026-05-03 22:04 44.74906 -69.06093 10873 ft 308 kts 223°
2026-05-03 22:04 44.73221 -69.08143 11086 ft 333 kts 223°
2026-05-03 22:04 44.71434 -69.10324 11566 ft 346 kts 223°
2026-05-03 22:05 44.69606 -69.12563 12342 ft 350 kts 223°
2026-05-03 22:05 44.67770 -69.14816 13229 ft 350 kts 223°
2026-05-03 22:05 44.65936 -69.17073 14019 ft 353 kts 223°
2026-05-03 22:05 44.64079 -69.19361 14742 ft 356 kts 223°
2026-05-03 22:06 44.62211 -69.21667 15428 ft 359 kts 223°
2026-05-03 22:06 44.60324 -69.23996 16129 ft 363 kts 223°
2026-05-03 22:06 44.58421 -69.26346 16853 ft 366 kts 223°
2026-05-03 22:06 44.56503 -69.28712 17561 ft 369 kts 222°
2026-05-03 22:07 44.54566 -69.31099 18221 ft 372 kts 222°
2026-05-03 22:07 44.52615 -69.33501 18820 ft 375 kts 222°
2026-05-03 22:07 44.50653 -69.35916 19433 ft 377 kts 222°
2026-05-03 22:07 44.48677 -69.38344 20019 ft 379 kts 221°
2026-05-03 22:08 44.46684 -69.40793 20616 ft 382 kts 222°
2026-05-03 22:08 44.44675 -69.43260 21127 ft 387 kts 222°
2026-05-03 22:08 44.42644 -69.45762 21656 ft 391 kts 222°
2026-05-03 22:08 44.40596 -69.48277 22241 ft 392 kts 222°
2026-05-03 22:09 44.38535 -69.50795 22806 ft 395 kts 221°
2026-05-03 22:09 44.36455 -69.53334 23314 ft 399 kts 221°
2026-05-03 22:09 44.34355 -69.55895 23719 ft 402 kts 221°
2026-05-03 22:10 44.30150 -69.61022 24602 ft 406 kts 222°
2026-05-03 22:10 44.28012 -69.63626 24989 ft 410 kts 222°
2026-05-03 22:10 44.25852 -69.66254 25388 ft 413 kts 222°
2026-05-03 22:10 44.23686 -69.68888 25808 ft 415 kts 222°
2026-05-03 22:11 44.21504 -69.71538 26210 ft 417 kts 222°
2026-05-03 22:11 44.19311 -69.74200 26591 ft 420 kts 222°
2026-05-03 22:11 44.17097 -69.76883 26963 ft 422 kts 222°
2026-05-03 22:11 44.14874 -69.79574 27322 ft 425 kts 222°
2026-05-03 22:12 44.12638 -69.82278 27706 ft 427 kts 222°
2026-05-03 22:12 44.10392 -69.84991 28078 ft 429 kts 222°
2026-05-03 22:12 44.08131 -69.87720 28411 ft 431 kts 222°
2026-05-03 22:12 44.05860 -69.90458 28762 ft 434 kts 222°
2026-05-03 22:13 44.03573 -69.93212 29092 ft 436 kts 222°
2026-05-03 22:13 44.01272 -69.95980 29399 ft 439 kts 222°
2026-05-03 22:13 43.98959 -69.98759 29706 ft 441 kts 222°
2026-05-03 22:13 43.96633 -70.01551 29959 ft 443 kts 223°
2026-05-03 22:14 43.94295 -70.04352 30234 ft 444 kts 222°
2026-05-03 22:14 43.91961 -70.07146 30606 ft 443 kts 222°
2026-05-03 22:14 43.89635 -70.09929 30995 ft 441 kts 222°
2026-05-03 22:14 43.87316 -70.12701 31353 ft 440 kts 222°
2026-05-03 22:15 43.84996 -70.15471 31669 ft 440 kts 222°
2026-05-03 22:15 43.82709 -70.18199 32001 ft 439 kts 223°
2026-05-03 22:15 43.80364 -70.20993 32333 ft 439 kts 223°
2026-05-03 22:15 43.78084 -70.23707 32640 ft 439 kts 223°
2026-05-03 22:16 43.75771 -70.26457 32966 ft 438 kts 223°
2026-05-03 22:16 43.73459 -70.29203 33303 ft 437 kts 223°
2026-05-03 22:16 43.71155 -70.31936 33638 ft 437 kts 222°
2026-05-03 22:16 43.68850 -70.34668 33914 ft 436 kts 222°
2026-05-03 22:17 43.66543 -70.37399 34169 ft 436 kts 223°
2026-05-03 22:17 43.64243 -70.40120 34442 ft 435 kts 223°
2026-05-03 22:17 43.61954 -70.42824 34699 ft 434 kts 223°
2026-05-03 22:17 43.59657 -70.45535 34925 ft 434 kts 223°
2026-05-03 22:18 43.57365 -70.48237 35158 ft 434 kts 222°
2026-05-03 22:18 43.55078 -70.50931 35405 ft 433 kts 222°
2026-05-03 22:18 43.52787 -70.53627 35646 ft 432 kts 222°
2026-05-03 22:18 43.50498 -70.56317 35859 ft 432 kts 223°
2026-05-03 22:19 43.48214 -70.58999 36091 ft 431 kts 223°
2026-05-03 22:19 43.45933 -70.61674 36336 ft 430 kts 223°
2026-05-03 22:19 43.43661 -70.64338 36544 ft 430 kts 223°
2026-05-03 22:19 43.41385 -70.67004 36743 ft 430 kts 223°
2026-05-03 22:20 43.39105 -70.69671 36944 ft 429 kts 223°
2026-05-03 22:20 43.36832 -70.72326 37176 ft 428 kts 223°
2026-05-03 22:20 43.34523 -70.74886 37349 ft 430 kts 217°
2026-05-03 22:20 43.31954 -70.77037 37526 ft 432 kts 212°
2026-05-03 22:21 43.29326 -70.79035 37754 ft 431 kts 212°
2026-05-03 22:21 43.24052 -70.83019 37796 ft 434 kts 212°
2026-05-03 22:22 43.18827 -70.87003 37790 ft 431 kts 212°
2026-05-03 22:22 43.13584 -70.91023 37781 ft 428 kts 212°
2026-05-03 22:23 43.08423 -70.94982 37785 ft 426 kts 212°
2026-05-03 22:23 43.03259 -70.98932 37790 ft 425 kts 212°
2026-05-03 22:24 42.98100 -71.02871 37795 ft 424 kts 212°
2026-05-03 22:24 42.92943 -71.06800 37802 ft 425 kts 212°
2026-05-03 22:25 42.87670 -71.10515 37836 ft 428 kts 209°
2026-05-03 22:25 42.82264 -71.13980 37826 ft 430 kts 208°
2026-05-03 22:26 42.76842 -71.17445 37836 ft 431 kts 209°
2026-05-03 22:26 42.71406 -71.20950 37834 ft 433 kts 209°
2026-05-03 22:27 42.65964 -71.24468 37823 ft 434 kts 209°
2026-05-03 22:27 42.60497 -71.27999 37823 ft 435 kts 209°
2026-05-03 22:28 42.55036 -71.31517 37822 ft 435 kts 209°
2026-05-03 22:28 42.49614 -71.35005 37821 ft 434 kts 209°
2026-05-03 22:29 42.44158 -71.38506 37816 ft 433 kts 209°
2026-05-03 22:29 42.38721 -71.41989 37822 ft 432 kts 209°
2026-05-03 22:30 42.33301 -71.45455 37825 ft 430 kts 209°
2026-05-03 22:30 42.27905 -71.48900 37828 ft 428 kts 210°
2026-05-03 22:31 42.22515 -71.52338 37837 ft 427 kts 210°
2026-05-03 22:31 42.17195 -71.55865 37851 ft 426 kts 211°
2026-05-03 22:32 42.11891 -71.59433 37834 ft 426 kts 211°
2026-05-03 22:32 42.06589 -71.62978 37847 ft 426 kts 211°
2026-05-03 22:33 42.01276 -71.66513 37853 ft 426 kts 211°
2026-05-03 22:33 41.95972 -71.70033 37850 ft 427 kts 211°
2026-05-03 22:34 41.90646 -71.73560 37850 ft 427 kts 211°
2026-05-03 22:34 41.87147 -71.75875 37848 ft 427 kts 211°
2026-05-03 22:35 41.83428 -71.78333 37857 ft 428 kts 211°
2026-05-03 22:35 41.78150 -71.81871 37862 ft 428 kts 212°
2026-05-03 22:36 41.72896 -71.85624 37875 ft 427 kts 213°
2026-05-03 22:36 41.67650 -71.89394 37879 ft 428 kts 213°
2026-05-03 22:37 41.62396 -71.93138 37887 ft 428 kts 213°
2026-05-03 22:37 41.57139 -71.96849 37557 ft 420 kts 216°
2026-05-03 22:37 41.54633 -71.98631 37713 ft 397 kts 218°
2026-05-03 22:38 41.52257 -72.00360 37753 ft 381 kts 217°
2026-05-03 22:38 41.47629 -72.03594 37865 ft 376 kts 217°
2026-05-03 22:39 41.42966 -72.06871 37882 ft 382 kts 217°
2026-05-03 22:39 41.38222 -72.10209 37886 ft 389 kts 217°
2026-05-03 22:40 41.33416 -72.13583 37875 ft 392 kts 216°
2026-05-03 22:40 41.28576 -72.16975 37878 ft 394 kts 216°
2026-05-03 22:41 41.24546 -72.19794 37869 ft 393 kts 216°
2026-05-03 22:41 41.19762 -72.23119 37866 ft 382 kts 217°
2026-05-03 22:42 41.15072 -72.26382 37904 ft 381 kts 217°
2026-05-03 22:42 41.10381 -72.29648 37906 ft 381 kts 217°
2026-05-03 22:43 41.05688 -72.32909 37898 ft 381 kts 217°
2026-05-03 22:43 41.00970 -72.36182 37507 ft 387 kts 217°
2026-05-03 22:43 40.98631 -72.37800 37218 ft 382 kts 217°
2026-05-03 22:44 40.96306 -72.39399 37129 ft 367 kts 217°
2026-05-03 22:44 40.91818 -72.42493 37074 ft 366 kts 217°
2026-05-03 22:45 40.87256 -72.45657 36995 ft 377 kts 217°
2026-05-03 22:45 40.84905 -72.47285 36721 ft 385 kts 217°
2026-05-03 22:45 40.82524 -72.48924 36428 ft 386 kts 217°
2026-05-03 22:45 40.80157 -72.50544 36171 ft 381 kts 217°
2026-05-03 22:46 40.77819 -72.52144 35910 ft 376 kts 217°
2026-05-03 22:46 40.75510 -72.53729 35668 ft 374 kts 217°
2026-05-03 22:46 40.73200 -72.55316 35429 ft 374 kts 217°
2026-05-03 22:46 40.70905 -72.56914 35190 ft 371 kts 220°
2026-05-03 22:47 40.68778 -72.58775 34925 ft 363 kts 225°
2026-05-03 22:47 40.66872 -72.60900 34524 ft 356 kts 231°
2026-05-03 22:47 40.65123 -72.63198 33892 ft 354 kts 231°
2026-05-03 22:47 40.63388 -72.65499 33210 ft 353 kts 231°
2026-05-03 22:48 40.61661 -72.67782 32585 ft 351 kts 231°
2026-05-03 22:48 40.59998 -72.69968 32204 ft 344 kts 231°
2026-05-03 22:48 40.58307 -72.72184 31747 ft 340 kts 231°
2026-05-03 22:48 40.56644 -72.74359 31302 ft 335 kts 231°
2026-05-03 22:49 40.55009 -72.76493 30894 ft 330 kts 231°
2026-05-03 22:49 40.53383 -72.78612 30504 ft 325 kts 231°
2026-05-03 22:49 40.51779 -72.80687 30133 ft 321 kts 230°
2026-05-03 22:49 40.50156 -72.82678 29737 ft 323 kts 229°
2026-05-03 22:50 40.48474 -72.84708 29302 ft 335 kts 228°
2026-05-03 22:50 40.46729 -72.86794 28855 ft 340 kts 228°
2026-05-03 22:50 40.44994 -72.88861 28419 ft 334 kts 228°
2026-05-03 22:50 40.43286 -72.90901 27982 ft 329 kts 228°
2026-05-03 22:51 40.41611 -72.92909 27550 ft 324 kts 228°
2026-05-03 22:51 40.39960 -72.94892 27163 ft 320 kts 228°
2026-05-03 22:51 40.38330 -72.96852 26768 ft 316 kts 228°
2026-05-03 22:51 40.36741 -72.98764 26380 ft 313 kts 227°
2026-05-03 22:52 40.35126 -73.00705 25974 ft 310 kts 227°
2026-05-03 22:52 40.33567 -73.02575 25612 ft 307 kts 227°
2026-05-03 22:52 40.31998 -73.04458 25239 ft 304 kts 227°
2026-05-03 22:52 40.30446 -73.06335 24813 ft 303 kts 227°
2026-05-03 22:53 40.28903 -73.08204 24469 ft 305 kts 227°
2026-05-03 22:53 40.27314 -73.10133 24091 ft 319 kts 227°
2026-05-03 22:53 40.25667 -73.12123 23689 ft 322 kts 227°
2026-05-03 22:53 40.24037 -73.14078 23442 ft 314 kts 227°
2026-05-03 22:54 40.22430 -73.16000 23152 ft 313 kts 227°
2026-05-03 22:54 40.20830 -73.17915 22761 ft 309 kts 227°
2026-05-03 22:54 40.19251 -73.19805 22359 ft 307 kts 227°
2026-05-03 22:54 40.17680 -73.21686 21942 ft 306 kts 227°
2026-05-03 22:55 40.16119 -73.23556 21528 ft 304 kts 227°
2026-05-03 22:55 40.14558 -73.25422 21131 ft 303 kts 227°
2026-05-03 22:55 40.13003 -73.27279 20731 ft 302 kts 227°
2026-05-03 22:55 40.11453 -73.29128 20343 ft 300 kts 226°
2026-05-03 22:56 40.09917 -73.30949 20011 ft 298 kts 226°
2026-05-03 22:56 40.08378 -73.32768 19623 ft 298 kts 226°
2026-05-03 22:56 40.06841 -73.34585 19236 ft 298 kts 226°
2026-05-03 22:56 40.05299 -73.36408 18846 ft 299 kts 226°
2026-05-03 22:57 40.03757 -73.38230 18466 ft 299 kts 225°
2026-05-03 22:57 40.02214 -73.40050 18047 ft 299 kts 225°
2026-05-03 22:57 40.00674 -73.41868 17650 ft 299 kts 225°
2026-05-03 22:57 39.99133 -73.43684 17266 ft 298 kts 225°
2026-05-03 22:58 39.97602 -73.45488 16888 ft 297 kts 225°
2026-05-03 22:58 39.96070 -73.47293 16523 ft 296 kts 225°
2026-05-03 22:58 39.94541 -73.49094 16151 ft 296 kts 225°
2026-05-03 22:58 39.93007 -73.50899 15777 ft 296 kts 225°
2026-05-03 22:59 39.91479 -73.52695 15410 ft 297 kts 225°
2026-05-03 22:59 39.89972 -73.54534 15038 ft 297 kts 229°
2026-05-03 22:59 39.88634 -73.56581 14672 ft 297 kts 232°
2026-05-03 22:59 39.87333 -73.58685 14286 ft 299 kts 233°
2026-05-03 23:00 39.86032 -73.60788 13912 ft 301 kts 233°
2026-05-03 23:00 39.84703 -73.62917 13497 ft 303 kts 233°
2026-05-03 23:00 39.83370 -73.65035 13123 ft 302 kts 232°
2026-05-03 23:00 39.82043 -73.67136 12759 ft 298 kts 232°
2026-05-03 23:01 39.80759 -73.69169 12455 ft 291 kts 232°
2026-05-03 23:01 39.79482 -73.71192 12075 ft 288 kts 232°
2026-05-03 23:01 39.78221 -73.73190 11694 ft 285 kts 232°
2026-05-03 23:01 39.76967 -73.75178 11304 ft 283 kts 232°
2026-05-03 23:02 39.75730 -73.77138 11053 ft 276 kts 232°
2026-05-03 23:02 39.74540 -73.79019 10958 ft 265 kts 232°
2026-05-03 23:02 39.73364 -73.80880 10592 ft 264 kts 232°
2026-05-03 23:02 39.72212 -73.82702 10394 ft 258 kts 232°
2026-05-03 23:03 39.71089 -73.84477 10276 ft 250 kts 232°
2026-05-03 23:03 39.69999 -73.86197 10155 ft 244 kts 232°
2026-05-03 23:03 39.68934 -73.87879 10047 ft 238 kts 232°
2026-05-03 23:03 39.67891 -73.89527 9809 ft 236 kts 232°
2026-05-03 23:04 39.66855 -73.91162 9565 ft 234 kts 232°
2026-05-03 23:04 39.65827 -73.92783 9306 ft 231 kts 232°
2026-05-03 23:04 39.64811 -73.94385 9049 ft 229 kts 232°
2026-05-03 23:04 39.63807 -73.95967 8822 ft 226 kts 232°
2026-05-03 23:05 39.62816 -73.97526 8606 ft 223 kts 232°
2026-05-03 23:05 39.61828 -73.99080 8377 ft 223 kts 232°
2026-05-03 23:05 39.60843 -74.00626 8171 ft 222 kts 231°
2026-05-03 23:05 39.59880 -74.02142 8059 ft 216 kts 231°
2026-05-03 23:06 39.58926 -74.03644 7858 ft 216 kts 231°
2026-05-03 23:06 39.57962 -74.05161 7622 ft 220 kts 231°
2026-05-03 23:06 39.56980 -74.06706 7375 ft 223 kts 231°
2026-05-03 23:06 39.55995 -74.08254 7112 ft 223 kts 231°
2026-05-03 23:07 39.55006 -74.09807 6869 ft 223 kts 231°
2026-05-03 23:07 39.54017 -74.11359 6627 ft 223 kts 231°
2026-05-03 23:07 39.53028 -74.12909 6389 ft 223 kts 231°
2026-05-03 23:07 39.52042 -74.14456 6134 ft 223 kts 231°
2026-05-03 23:08 39.51056 -74.16003 5893 ft 222 kts 231°
2026-05-03 23:08 39.50068 -74.17548 5652 ft 222 kts 231°
2026-05-03 23:08 39.49082 -74.19084 5410 ft 222 kts 231°
2026-05-03 23:08 39.48096 -74.20618 5166 ft 222 kts 231°
2026-05-03 23:09 39.47108 -74.22149 4933 ft 221 kts 231°
2026-05-03 23:09 39.46131 -74.23661 4713 ft 216 kts 231°
2026-05-03 23:09 39.45176 -74.25136 4419 ft 213 kts 231°
2026-05-03 23:09 39.44230 -74.26592 4148 ft 209 kts 231°
2026-05-03 23:10 39.43313 -74.28002 3902 ft 200 kts 231°
2026-05-03 23:10 39.42441 -74.29334 3710 ft 188 kts 231°
2026-05-03 23:10 39.41624 -74.30562 3627 ft 174 kts 226°
2026-05-03 23:10 39.40604 -74.31408 3554 ft 174 kts 212°
2026-05-03 23:11 39.39585 -74.32251 3479 ft 175 kts 218°
2026-05-03 23:11 39.38615 -74.33207 3411 ft 176 kts 221°
2026-05-03 23:11 39.37631 -74.34151 3333 ft 177 kts 218°
2026-05-03 23:11 39.36965 -74.35402 3203 ft 171 kts 266°
2026-05-03 23:12 39.37181 -74.36853 3136 ft 162 kts 286°
2026-05-03 23:12 39.37656 -74.38152 2949 ft 160 kts 305°
2026-05-03 23:12 39.38270 -74.39329 2781 ft 156 kts 301°
2026-05-03 23:12 39.38799 -74.40535 2623 ft 153 kts 298°
2026-05-03 23:13 39.39304 -74.41744 2554 ft 156 kts 298°
2026-05-03 23:13 39.39818 -74.42990 2352 ft 157 kts 298°
2026-05-03 23:13 39.40328 -74.44236 2135 ft 155 kts 298°
2026-05-03 23:13 39.40829 -74.45460 1927 ft 153 kts 298°
2026-05-03 23:14 39.41328 -74.46679 1733 ft 152 kts 297°
2026-05-03 23:14 39.41824 -74.47892 1507 ft 154 kts 297°
2026-05-03 23:14 39.42326 -74.49116 1302 ft 154 kts 298°
2026-05-03 23:14 39.42826 -74.50338 1084 ft 153 kts 298°
2026-05-03 23:15 39.43322 -74.51547 868 ft 151 kts 297°
2026-05-03 23:15 39.43814 -74.52745 656 ft 150 kts 296°
2026-05-03 23:15 39.44294 -74.53936 411 ft 147 kts 296°
2026-05-03 23:15 39.44765 -74.55072 263 ft 143 kts 297°
2026-05-03 23:16 39.45243 -74.56232 103 ft 149 kts 297°
2026-05-03 23:16 39.45688 -74.57310 71 ft 112 kts 298°
2026-05-03 23:16 39.45953 -74.57950 72 ft 52 kts 298°
2026-05-03 23:16 39.46057 -74.58207 74 ft 27 kts 297°
2026-05-03 23:17 39.46136 -74.58405 74 ft 17 kts 294°
2026-05-03 23:17 39.46105 -74.58508 77 ft 12 kts 209°
2026-05-03 23:17 39.46039 -74.58524 69 ft 10 kts 140°
2026-05-03 23:17 39.46003 -74.58446 75 ft 10 kts 116°
2026-05-03 23:18 39.45973 -74.58370 73 ft 10 kts 117°
2026-05-03 23:18 39.45941 -74.58296 73 ft 9 kts 121°
2026-05-03 23:18 39.45910 -74.58224 74 ft 9 kts 118°
2026-05-03 23:18 39.45881 -74.58153 72 ft 9 kts 117°
2026-05-03 23:19 39.45853 -74.58083 74 ft 9 kts 117°
2026-05-03 23:19 39.45826 -74.58016 74 ft 8 kts 118°
2026-05-03 23:19 39.45798 -74.57950 74 ft 8 kts 119°
2026-05-03 23:19 39.45768 -74.57879 77 ft 9 kts 118°
2026-05-03 23:20 39.45736 -74.57803 74 ft 10 kts 118°
2026-05-03 23:20 39.45704 -74.57724 74 ft 10 kts 118°
2026-05-03 23:20 39.45672 -74.57645 74 ft 10 kts 117°
2026-05-03 23:20 39.45640 -74.57569 68 ft 9 kts 118°
2026-05-03 23:21 39.45610 -74.57494 68 ft 9 kts 118°
2026-05-03 23:21 39.45579 -74.57423 72 ft 9 kts 118°
2026-05-03 23:21 39.45551 -74.57352 74 ft 9 kts 117°
2026-05-03 23:21 39.45523 -74.57283 78 ft 8 kts 119°
2026-05-03 23:22 39.45436 -74.57286 72 ft 9 kts 234°
2026-05-03 23:22 39.45401 -74.57349 75 ft 9 kts 235°
2026-05-03 23:22 39.45366 -74.57415 77 ft 9 kts 236°
2026-05-03 23:23 39.45329 -74.57486 74 ft 10 kts 237°
2026-05-03 23:23 39.45286 -74.57569 71 ft 12 kts 236°
2026-05-03 23:23 39.45235 -74.57665 75 ft 13 kts 235°
2026-05-03 23:23 39.45180 -74.57705 75 ft 9 kts 169°
2026-05-03 23:24 39.45140 -74.57647 73 ft 9 kts 94°
2026-05-03 23:24 39.45127 -74.57569 71 ft 9 kts 120°
2026-05-03 23:24 39.45100 -74.57529 73 ft 1 kts 138°
2026-05-03 23:24 39.45095 -74.57523 74 ft 1 kts 139°
2026-05-03 23:25 39.45092 -74.57521 77 ft 0 kts 140°
2026-05-03 23:25 39.45092 -74.57520 77 ft 0 kts 140°
2026-05-03 23:25 39.45091 -74.57519 77 ft 0 kts 139°
2026-05-03 23:25 39.45090 -74.57509 77 ft 4 kts 94°
2026-05-03 23:26 39.45118 -74.57483 73 ft 6 kts 28°
2026-05-03 23:26 39.45147 -74.57452 68 ft 5 kts 52°
2026-05-03 23:26 39.45167 -74.57411 71 ft 5 kts 53°
2026-05-03 23:26 39.45192 -74.57376 77 ft 5 kts 46°
2026-05-03 23:27 39.45217 -74.57343 74 ft 5 kts 43°
2026-05-03 23:27 39.45242 -74.57311 74 ft 5 kts 50°
2026-05-03 23:27 39.45262 -74.57274 75 ft 5 kts 58°
2026-05-03 23:27 39.45284 -74.57233 72 ft 6 kts 50°
2026-05-03 23:28 39.45314 -74.57193 72 ft 7 kts 45°
2026-05-03 23:28 39.45349 -74.57150 76 ft 7 kts 44°
2026-05-03 23:28 39.45383 -74.57108 70 ft 7 kts 43°
2026-05-03 23:28 39.45409 -74.57059 70 ft 7 kts 71°
2026-05-03 23:29 39.45405 -74.57001 68 ft 6 kts 113°
2026-05-03 23:29 39.45384 -74.56950 78 ft 6 kts 118°
2026-05-03 23:29 39.45364 -74.56900 67 ft 6 kts 118°
2026-05-03 23:29 39.45343 -74.56852 77 ft 6 kts 118°
2026-05-03 23:30 39.45324 -74.56805 77 ft 6 kts 118°
2026-05-03 23:30 39.45309 -74.56776 75 ft 6 kts 135°
2026-05-03 23:30 39.45261 -74.56775 73 ft 5 kts 205°
2026-05-03 23:30 39.45227 -74.56797 72 ft 5 kts 196°
2026-05-03 23:31 39.45191 -74.56798 73 ft 5 kts 174°
2026-05-03 23:31 39.45158 -74.56811 68 ft 5 kts 214°
2026-05-03 23:31 39.45146 -74.56822 77 ft 0 kts 214°